Wind_Speed
7 7 6 6 6 6 6 6 6 6 6 6 7 7 7 7 8 8 8 9 9 9 10 10 10 10 10 10 11 11 12 12 13 15 16 13 11 11 10 9 7 6 5 4 2 2 3 4 5 6 5 5 4 4 5 6 8 4 2 2 3 3 4 5 7 4 3 4 5 5 10 8 6 8 9 8 11 16 16 17 18 18 20 23 24 22 20 15
7 7 7 6 6 6 5 5 5 5 6 6 6 6 6 6 7 7 7 8 8 9 9 10 10 10 10 11 11 12 13 13 15 16 15 11 12 13 12 12 10 9 7 5 4 3 3 5 6 6 6 6 5 4 4 6 9 6 3 2 5 5 6 6 6 5 2 5 7 7 10 10 9 9 6 5 10 13 13 15 18 20 22 25 27 25 24 22
8 8 7 7 7 6 6 5 5 5 5 6 6 6 6 6 6 7 7 7 8 8 9 10 10 10 11 11 12 12 13 14 15 13 7 2 5 8 10 12 11 10 8 6 5 3 4 5 5 5 6 7 6 6 5 5 8 7 4 2 7 8 6 10 12 13 12 10 8 7 9 10 13 12 6 6 10 12 12 15 15 20 27 27 28 28 26 25
9 9 8 7 7 7 7 6 6 6 6 6 6 7 6 6 6 7 7 7 8 8 9 9 10 11 11 12 12 11 14 14 10 4 1 2 10 11 8 8 11 10 9 8 6 5 5 6 5 5 6 7 7 7 6 8 8 5 6 5 7 5 4 14 17 19 18 12 9 8 5 8 14 13 10 8 7 10 15 21 20 22 27 26 27 29 28 28
11 10 10 9 8 8 8 7 7 7 6 7 7 8 8 8 8 8 8 8 8 8 9 9 10 11 11 12 12 11 12 8 3 5 5 9 14 12 8 5 9 10 10 10 9 8 7 7 7 6 6 6 5 4 6 12 11 3 8 13 12 5 4 16 18 16 16 11 10 8 6 10 12 10 14 12 8 16 21 20 21 22 22 21 23 25 28 30
12 12 11 11 10 10 9 9 9 8 8 8 8 9 9 9 10 9 10 10 10 10 10 10 10 11 11 12 11 11 7 3 8 12 11 12 12 10 7 6 7 10 11 11 11 10 9 9 9 7 5 4 5 6 6 12 12 6 8 13 18 14 11 21 21 18 17 12 11 10 13 15 11 10 15 17 22 34 36 26 25 26 22 19 20 23 26 29
13 13 13 13 12 12 12 11 11 11 10 10 10 10 10 11 11 11 12 12 13 13 13 12 12 12 12 12 12 11 7 9 14 11 9 10 10 10 8 6 5 9 12 13 13 13 11 11 11 9 4 3 4 8 8 9 10 9 7 7 17 20 19 26 24 20 19 16 16 15 15 14 11 12 12 21 37 45 41 33 31 31 26 20 21 25 27 28
14 14 14 14 14 14 14 14 13 13 13 13 12 12 12 13 13 13 13 13 15 14 15 15 14 14 14 13 14 11 11 13 12 8 10 12 11 11 9 8 6 9 12 14 15 14 14 12 13 9 4 4 6 6 6 7 6 9 8 8 12 16 20 24 21 21 21 20 20 15 16 18 18 16 13 29 49 49 39 35 34 33 30 26 27 30 30 31
15 15 15 15 16 16 16 16 16 16 15 15 15 15 14 14 15 15 15 15 16 16 16 16 16 16 15 15 14 10 13 14 10 10 13 13 13 12 11 10 8 9 12 15 16 16 16 15 15 12 7 7 6 7 5 3 4 7 10 11 10 13 20 22 20 23 22 20 17 11 17 23 21 14 16 39 51 45 37 33 32 30 32 33 34 35 35 36
17 16 16 16 16 17 17 18 18 18 17 17 17 17 16 16 16 17 17 17 17 18 18 17 17 16 15 16 11 7 14 15 12 15 16 15 15 14 13 12 11 11 12 16 18 19 19 16 14 12 10 8 6 7 5 4 6 6 9 12 15 16 22 23 21 24 20 17 17 11 16 23 17 5 13 40 43 31 28 25 23 23 28 33 35 38 38 39
19 18 17 17 17 18 19 19 19 19 19 19 19 19 18 18 18 19 19 19 19 19 19 19 18 16 16 17 12 12 19 19 17 20 18 17 17 15 15 14 14 13 14 17 19 21 20 17 13 9 7 5 4 6 6 8 8 9 9 12 18 15 20 26 19 21 15 11 18 15 14 17 8 5 19 41 38 25 24 24 23 21 26 30 31 35 36 39
20 19 18 18 18 18 19 19 20 21 21 21 21 20 20 21 21 21 21 21 21 21 21 20 19 18 16 18 21 21 23 22 20 21 19 19 19 18 17 16 16 15 15 17 19 20 19 18 16 12 9 5 2 2 4 7 6 9 6 7 15 9 15 27 18 16 11 7 13 8 7 11 4 13 32 40 37 29 27 30 33 31 33 34 33 35 35 38
19 19 19 19 19 19 20 20 20 21 21 21 21 21 20 21 21 21 22 22 22 21 21 20 19 19 15 19 27 26 23 23 22 21 21 21 21 21 20 19 17 16 16 17 19 19 19 18 17 15 13 8 4 4 6 7 6 9 3 0 10 7 10 17 6 6 8 5 9 8 3 10 7 21 36 36 34 30 26 33 38 37 38 37 36 36 37 38
20 20 20 20 20 21 21 21 21 22 22 21 21 21 20 20 20 21 21 21 21 21 21 19 18 17 14 21 29 27 24 25 25 24 22 22 23 23 22 20 19 17 16 17 19 19 17 17 15 13 13 12 9 9 8 7 5 4 1 1 3 3 9 10 4 5 4 4 13 12 3 12 10 20 31 30 29 24 24 33 36 36 38 38 37 37 37 38
19 19 20 20 21 21 22 22 22 23 23 23 22 22 21 21 21 21 21 21 20 20 20 18 17 14 12 21 28 24 23 25 25 24 22 21 23 23 21 19 18 17 16 17 19 18 16 13 12 10 8 11 11 7 4 4 3 1 1 4 2 3 9 13 6 7 8 5 13 11 3 11 13 20 29 28 24 20 23 31 33 34 36 36 38 38 39 39
17 17 18 19 20 21 22 22 23 23 24 24 23 23 22 22 22 22 22 21 20 19 19 16 16 12 8 15 21 21 24 26 25 24 22 21 22 22 20 17 16 16 16 16 17 16 13 9 8 7 6 7 6 2 3 4 5 2 4 6 5 5 4 8 9 8 11 5 7 9 6 7 10 18 25 19 17 18 20 28 32 34 36 36 38 39 41 42
13 14 15 16 18 19 20 21 22 23 25 25 25 24 24 23 23 23 22 21 20 18 15 12 11 10 9 14 20 23 25 23 22 21 21 21 21 21 19 17 15 15 15 14 14 11 9 8 6 5 5 5 2 5 2 3 7 4 3 5 6 6 3 3 9 6 7 6 6 10 9 12 14 17 22 17 14 14 16 24 29 31 34 34 35 38 41 43
11 12 12 14 15 16 17 18 19 21 22 23 24 24 23 22 22 22 21 20 17 11 9 10 8 3 9 15 17 19 18 16 15 14 15 17 19 20 18 17 14 13 11 9 8 7 8 7 5 1 3 4 2 5 4 8 10 6 5 4 4 5 6 7 9 4 2 5 8 8 10 16 17 18 25 28 24 19 19 25 29 32 34 34 35 38 42 45
10 11 12 13 14 14 15 16 16 17 18 18 18 20 20 18 16 16 15 14 11 6 4 10 12 5 7 10 12 14 15 17 16 15 17 18 18 19 17 15 12 11 8 4 4 9 11 4 4 2 4 9 7 7 11 15 12 9 6 5 4 6 7 8 12 8 3 6 8 10 13 16 17 18 22 30 31 26 27 28 30 34 37 38 39 43 47 50
11 11 12 12 13 13 14 14 15 15 16 15 15 15 13 9 6 7 8 11 14 13 12 13 16 16 16 16 17 18 20 21 19 18 20 19 18 17 17 13 8 8 6 5 4 8 11 5 3 8 11 13 9 10 16 16 11 8 5 6 7 8 9 10 14 11 5 6 9 12 16 17 17 18 18 26 27 21 23 26 29 34 36 38 40 45 49 51
12 11 11 12 12 12 13 14 13 13 14 15 15 13 7 3 2 5 8 12 17 21 23 23 22 25 27 25 24 23 21 18 18 20 19 18 17 13 14 12 7 4 6 7 4 3 7 6 8 15 15 13 10 10 13 12 9 9 7 8 9 8 12 13 13 14 5 5 9 11 16 18 17 16 16 20 18 16 21 23 28 35 34 37 40 45 50 50
12 12 12 12 11 11 12 14 13 13 15 14 15 13 8 6 5 8 9 10 19 22 24 26 27 31 33 31 32 29 22 17 18 21 19 18 19 14 11 11 6 4 5 6 2 1 4 6 14 19 14 8 6 6 8 10 9 8 6 7 8 7 11 12 11 14 6 4 8 11 14 16 14 15 15 15 16 22 31 31 33 36 31 34 39 44 49 49
12 12 12 12 12 11 12 12 11 13 15 13 14 14 11 10 8 10 9 7 15 20 23 27 30 33 35 33 34 32 26 20 18 21 22 21 21 17 12 10 6 3 5 7 8 6 5 8 17 19 10 6 8 6 6 6 6 7 6 6 8 7 8 9 7 8 5 3 6 9 12 13 11 12 11 17 26 29 35 37 37 37 33 38 44 45 47 49
12 12 12 13 12 12 12 11 9 12 14 13 15 15 13 12 10 12 11 6 8 14 21 27 26 28 32 29 26 28 27 21 16 16 22 26 21 13 10 9 5 3 7 11 13 13 10 8 12 13 9 9 11 9 6 5 7 9 9 7 11 12 12 12 6 6 6 5 5 7 12 12 9 13 11 15 24 24 28 32 32 37 39 42 46 46 49 52
13 13 13 14 13 13 14 11 8 11 12 12 15 15 14 13 11 12 11 5 5 8 12 16 16 18 22 20 17 17 16 17 19 18 18 25 24 12 6 9 7 6 11 12 11 12 12 9 8 7 7 11 11 9 7 7 10 9 8 13 18 17 14 14 9 8 6 6 4 1 9 10 6 11 10 9 11 13 17 19 23 35 40 39 44 48 51 52
15 15 15 15 14 14 14 10 9 11 10 10 15 16 14 12 11 11 8 3 4 5 3 6 7 6 8 11 12 10 4 9 18 21 18 22 27 18 5 6 7 6 8 7 5 5 7 10 10 8 8 10 8 7 8 10 10 9 7 14 18 14 10 11 9 4 3 5 3 3 2 10 5 5 8 8 9 11 12 11 17 30 35 34 41 48 49 47
17 17 16 17 16 16 14 11 11 11 9 9 13 15 13 10 10 10 6 3 4 3 4 4 4 3 4 7 13 12 3 4 6 13 18 19 22 19 8 5 4 4 4 3 4 3 4 6 8 9 8 7 6 9 10 12 9 8 4 10 12 10 8 7 5 5 4 4 4 3 4 8 12 6 10 13 13 11 12 13 16 23 29 34 41 45 45 44
18 18 18 18 17 18 17 15 14 10 8 8 10 12 11 8 8 7 4 3 4 3 3 3 4 2 3 9 17 11 0 1 2 4 12 15 16 13 8 6 4 3 3 5 6 4 4 5 8 9 7 5 8 10 9 13 8 7 3 6 7 6 5 5 5 4 1 5 5 4 6 3 14 7 8 11 11 10 13 17 16 17 26 35 39 42 42 42
16 15 16 17 18 19 19 18 15 10 8 6 8 10 9 6 6 6 3 3 2 3 2 2 3 1 1 9 13 7 2 2 1 2 6 10 13 9 3 4 4 4 4 5 8 6 1 3 5 8 6 7 9 6 7 13 9 4 5 5 4 3 3 5 3 2 2 5 6 5 6 3 13 7 4 4 6 9 12 14 14 16 25 32 34 37 39 39
17 14 13 15 18 20 19 19 15 11 9 6 6 8 6 3 2 3 3 4 1 1 1 2 2 1 3 5 4 5 2 1 1 4 4 5 10 8 2 0 2 3 5 4 7 10 5 1 2 5 6 6 4 1 2 8 5 2 5 4 6 5 4 4 1 4 2 8 6 9 11 7 8 6 4 4 5 7 9 8 10 13 20 29 32 34 34 34
20 18 16 16 18 18 19 19 15 11 9 8 7 7 4 2 2 2 6 2 2 1 1 1 1 2 3 3 2 3 1 2 1 5 3 3 4 3 2 0 1 1 3 5 7 9 6 3 2 5 7 5 5 3 1 1 2 3 3 2 4 5 4 5 4 4 1 9 6 11 12 9 8 6 2 5 5 4 6 8 11 11 16 27 31 30 28 29
21 20 20 20 20 18 18 19 15 12 12 12 9 4 2 2 1 6 5 4 2 2 1 2 1 2 2 1 1 3 1 2 3 5 4 3 3 3 3 5 4 1 4 4 4 5 4 7 5 3 7 9 6 2 2 5 2 4 3 3 0 4 3 3 4 0 4 9 6 8 7 6 11 7 4 9 10 8 9 11 14 13 16 24 27 25 24 27
22 22 23 24 23 21 19 18 14 13 14 13 7 1 5 1 5 5 3 2 2 2 1 2 1 3 4 2 3 4 1 3 4 3 2 3 2 3 5 5 6 2 4 3 2 3 4 6 4 4 4 10 10 5 3 2 3 6 5 6 5 3 2 4 4 3 5 7 4 4 5 4 7 4 9 14 14 11 10 15 21 20 19 21 22 24 23 27
24 24 25 25 25 24 22 18 14 13 14 9 4 5 4 5 5 1 2 5 3 3 1 1 2 2 3 2 4 4 2 4 4 4 2 3 2 3 4 5 6 3 2 2 2 2 4 8 5 7 3 9 13 12 9 4 4 6 4 5 6 5 5 4 4 6 7 5 4 1 4 5 4 3 9 12 9 7 8 15 21 21 21 22 24 27 27 30
22 22 23 23 25 25 22 20 16 14 13 9 7 4 4 7 4 1 3 5 2 4 5 3 3 0 3 3 4 4 6 5 2 4 3 3 3 4 4 5 8 6 3 2 2 3 4 9 6 3 3 11 13 13 10 6 1 3 3 3 5 6 6 3 6 6 4 3 4 3 4 6 4 6 8 7 8 9 9 13 13 17 24 27 29 33 35 35
19 19 19 20 22 22 20 19 15 15 16 13 7 3 8 6 3 3 3 2 2 2 3 5 1 2 5 3 3 4 5 4 1 2 3 3 3 5 5 4 9 11 8 5 3 2 5 7 3 0 2 6 6 5 7 7 3 2 3 4 5 5 6 4 7 2 1 5 5 4 7 6 4 8 8 5 8 9 9 10 11 17 24 23 26 32 34 32
18 18 18 19 19 15 14 14 15 19 20 14 4 6 6 3 5 6 2 0 1 2 3 2 3 3 4 3 2 3 2 2 2 2 2 2 2 5 5 5 8 14 16 12 5 4 6 7 3 4 4 4 3 3 2 1 4 5 4 6 3 2 2 3 2 2 2 8 5 5 13 9 4 8 5 3 5 8 8 8 7 12 16 14 18 25 27 26
18 18 21 23 20 15 14 12 15 22 20 10 8 10 4 3 6 7 4 2 0 2 2 3 4 2 3 4 4 2 2 3 3 3 3 2 3 5 5 4 5 8 14 14 5 3 3 6 5 2 2 3 4 3 3 4 3 5 3 2 3 1 2 2 3 3 6 9 5 7 15 11 6 8 5 4 8 11 10 7 5 8 9 8 11 17 20 19
17 15 18 19 15 14 15 14 20 25 16 5 8 9 4 3 6 7 8 5 2 1 3 5 5 3 4 5 5 3 4 4 3 3 4 4 4 3 2 1 0 1 3 7 4 3 1 2 5 1 2 2 3 1 3 2 2 1 2 3 1 3 4 3 3 3 5 9 8 8 10 8 6 6 5 9 11 10 8 5 5 7 7 6 6 9 14 16
15 10 10 10 6 8 13 18 24 21 9 4 8 7 2 2 5 9 13 9 4 4 4 5 6 6 6 5 4 3 2 2 2 2 3 2 3 3 2 1 2 2 3 4 4 2 1 3 5 3 3 2 2 3 6 5 3 2 3 3 3 3 1 1 3 2 3 7 7 7 8 7 6 4 5 10 9 8 8 5 6 8 8 9 9 12 19 22
12 7 8 9 10 11 17 20 16 10 3 4 5 5 4 5 5 7 13 14 10 8 6 4 5 6 4 4 4 3 2 1 2 3 2 2 3 3 1 2 4 1 4 3 1 1 1 3 4 4 4 5 6 4 6 8 7 5 6 7 7 7 5 4 7 5 3 5 5 7 8 6 7 5 3 6 7 6 6 6 6 10 13 16 19 22 24 23
11 7 7 12 15 17 20 14 7 5 4 5 6 6 6 7 7 7 10 13 11 8 6 4 5 5 4 5 5 4 4 3 4 4 4 6 7 6 6 7 5 3 1 1 3 2 4 1 3 5 6 8 11 8 6 9 7 5 4 5 6 6 6 7 9 6 3 4 3 5 8 5 7 12 7 5 7 7 8 8 6 9 16 18 20 22 20 18
13 10 8 11 15 21 19 7 5 7 4 5 7 7 7 5 5 6 7 9 8 5 5 4 6 8 7 7 7 6 5 5 7 8 7 7 9 15 21 24 18 8 3 2 3 4 5 3 3 5 4 6 10 12 7 4 4 4 4 5 6 7 8 9 7 4 5 6 4 7 10 6 7 15 13 9 11 10 12 14 12 13 21 24 23 24 27 30
10 13 12 11 14 21 16 5 6 8 5 5 4 5 8 7 6 8 7 7 7 5 4 5 6 9 8 7 8 7 6 6 8 10 10 6 8 19 29 32 26 13 6 6 6 6 5 2 2 2 4 5 4 6 7 3 3 3 4 5 7 9 9 7 3 2 5 10 11 11 10 8 9 13 14 15 18 17 20 27 26 22 24 28 28 31 37 41
4 8 13 15 20 24 19 11 8 5 5 8 7 6 7 5 9 16 13 7 9 8 4 4 5 7 7 7 7 8 9 9 8 7 8 5 5 11 22 29 27 16 13 15 11 8 6 4 4 4 6 8 8 7 5 3 2 3 3 6 9 11 13 10 5 6 7 10 13 12 10 10 12 13 16 20 24 25 26 32 34 29 26 28 32 35 38 40
2 3 6 10 20 25 23 20 14 5 4 7 6 6 9 8 8 14 12 8 12 12 7 6 6 5 4 6 7 8 8 10 9 6 5 5 4 4 11 21 21 19 21 22 16 9 1 3 8 11 13 12 14 14 9 6 6 7 9 13 14 14 15 12 8 10 11 11 13 12 13 16 16 15 18 22 25 26 27 27 25 23 24 29 33 35 35 36
2 2 3 4 10 16 17 18 14 7 7 8 4 3 10 11 6 7 9 9 12 13 9 7 10 9 8 9 10 9 10 11 12 11 10 9 7 6 9 12 12 17 19 15 14 10 1 4 11 15 18 18 18 20 16 12 13 16 16 17 16 13 12 12 12 14 12 12 13 13 15 19 17 16 20 24 25 25 25 24 21 21 25 29 33 35 34 34
4 3 4 2 3 6 7 9 9 7 7 8 5 4 10 12 8 6 6 6 8 9 7 6 11 14 11 9 7 7 9 11 11 11 9 7 6 7 8 7 7 13 12 6 9 8 2 6 11 13 18 19 18 20 19 17 17 17 17 17 17 16 15 15 17 17 14 15 16 15 17 20 18 16 20 23 24 24 25 28 31 32 32 32 32 35 36 36
6 5 6 4 3 4 3 2 2 3 4 4 3 5 10 12 11 6 2 2 4 5 6 5 4 4 4 3 1 3 5 5 5 4 2 4 6 4 5 7 6 7 6 2 4 4 3 5 10 13 17 18 18 20 20 20 19 17 18 20 20 20 22 23 23 22 21 22 22 22 25 25 20 17 19 24 28 28 27 32 35 35 37 38 38 36 34 35
6 4 5 5 5 7 6 4 2 2 3 4 5 4 5 7 8 4 2 3 2 2 3 2 4 5 4 3 1 3 2 2 2 2 3 6 6 3 2 4 5 9 9 4 2 4 5 5 8 12 13 13 16 18 17 18 19 21 22 22 21 22 24 24 24 21 21 24 26 27 28 23 17 18 22 27 33 31 26 26 30 35 41 44 39 30 24 26
8 7 5 5 4 4 4 3 2 1 3 5 5 3 3 5 4 1 0 4 5 2 2 3 5 6 4 4 4 2 0 2 3 7 7 6 7 7 5 5 5 8 9 5 3 3 3 3 4 7 7 7 10 14 17 19 20 21 22 21 22 23 23 22 22 21 22 24 25 24 21 16 15 19 21 22 25 23 20 22 28 33 34 29 25 24 25 26
9 9 6 4 4 4 3 1 1 2 3 3 2 2 4 3 4 5 2 3 5 7 8 8 6 6 4 5 6 4 6 8 11 15 15 15 17 18 17 16 14 9 5 5 5 4 4 4 4 5 7 8 10 15 18 16 14 13 14 21 26 26 25 24 22 22 24 22 19 17 15 11 9 8 9 12 13 11 13 15 15 17 21 25 26 26 27 28
Wind_Direction
323 327 328 332 338 342 348 353 357 1 6 11 17 21 21 22 25 24 23 23 20 16 13 9 1 354 347 337 327 319 314 310 304 294 288 289 281 273 274 277 275 276 297 298 289 257 199 167 182 196 201 212 233 233 218 217 205 193 125 146 234 204 207 201 194 213 172 252 274 237 229 212 246 259 247 257 247 247 248 239 236 235 236 241 248 253 257 254
314 317 318 322 325 329 336 339 345 348 352 356 4 9 11 14 13 17 16 15 14 12 11 6 2 359 354 349 341 328 319 313 304 297 296 290 272 267 265 267 269 269 280 282 278 263 207 171 178 199 210 225 239 228 220 213 199 189 141 160 228 206 215 213 209 233 225 269 272 256 240 221 239 261 253 255 251 248 249 246 239 239 240 241 246 249 253 254
304 307 308 310 313 317 320 322 330 332 339 341 344 350 355 359 358 3 2 1 1 360 360 357 355 352 350 349 344 337 329 319 307 300 297 311 315 298 272 258 255 258 262 262 264 257 231 203 188 202 219 231 233 224 219 200 201 206 182 209 242 217 237 257 252 261 271 277 272 268 251 229 246 259 244 246 267 262 242 242 234 237 247 246 245 246 248 250
298 299 298 300 301 304 304 308 311 314 322 324 328 332 334 340 341 342 342 343 343 343 345 343 344 343 342 343 341 337 334 326 312 311 150 35 352 341 316 265 244 243 246 245 243 239 232 215 213 223 223 230 229 227 222 204 203 200 183 207 241 201 230 262 261 266 273 275 269 270 263 252 262 258 242 248 286 275 246 246 244 245 259 260 251 249 248 247
296 296 296 295 294 295 295 294 294 298 302 304 312 315 318 323 323 326 326 325 326 328 330 330 333 332 332 335 333 331 341 344 333 351 316 310 325 327 332 291 240 230 234 233 229 229 225 215 220 222 220 231 215 212 234 217 205 193 218 229 243 214 227 266 269 274 276 273 270 271 272 276 274 253 243 239 241 264 264 265 265 261 267 269 260 256 250 246
294 294 294 294 293 292 290 288 288 287 288 292 296 300 306 308 310 313 312 314 315 315 318 319 323 322 324 326 321 321 330 311 313 327 317 316 326 323 326 306 252 229 229 227 227 227 226 220 217 215 216 236 206 200 240 229 209 226 250 239 250 245 246 268 271 274 278 274 267 270 275 277 275 266 259 242 243 265 274 275 275 275 273 267 260 255 251 248
293 293 294 294 293 292 290 288 286 284 284 285 286 290 295 297 300 301 303 306 306 308 312 314 316 316 319 317 312 307 276 279 307 317 319 329 331 326 323 308 271 239 229 225 228 226 227 220 215 219 215 260 236 217 248 250 212 224 261 249 257 255 252 265 271 273 276 274 273 277 277 269 258 271 276 261 264 272 276 275 273 272 270 261 252 250 251 253
292 293 294 294 294 293 292 290 287 285 283 282 284 285 287 291 292 292 295 296 298 301 303 308 312 312 316 312 309 299 271 286 308 304 311 320 317 318 315 302 279 250 237 231 232 230 232 224 220 224 216 243 239 227 256 276 222 211 249 258 260 261 260 269 275 276 278 278 281 282 270 259 255 268 279 271 275 278 277 277 275 268 263 255 251 252 253 255
293 294 294 294 294 294 293 291 289 287 284 283 284 283 285 287 287 288 288 289 293 294 296 302 304 306 310 304 302 294 282 295 307 301 308 310 305 303 295 290 276 258 244 236 234 230 231 229 231 231 235 248 241 244 242 258 239 210 240 262 270 275 278 281 280 278 280 280 281 275 267 266 262 269 277 271 275 281 281 280 278 270 261 255 252 254 254 255
294 293 294 294 294 293 292 291 290 288 287 286 286 286 286 286 286 287 287 288 289 291 293 296 298 301 301 296 287 270 285 295 300 302 305 301 296 291 283 279 269 260 248 239 234 232 232 233 237 232 241 257 242 244 220 212 252 257 272 283 281 283 287 285 277 277 281 279 269 243 260 271 263 245 266 272 276 282 285 284 282 271 262 260 256 255 256 257
296 296 296 295 294 292 290 290 290 289 288 288 288 288 288 289 289 288 288 289 289 291 291 292 295 294 294 287 256 247 283 292 294 298 297 293 288 281 278 271 265 261 249 242 236 237 237 234 233 222 233 254 245 253 242 240 261 286 309 309 291 295 297 284 272 274 277 278 263 233 253 272 258 194 244 266 276 277 281 285 281 271 266 267 263 261 259 258
298 299 299 298 296 294 293 292 291 289 288 288 288 288 289 289 289 289 289 289 290 291 290 291 291 289 290 278 259 265 285 288 289 290 288 287 283 275 272 266 263 259 251 247 241 240 237 232 228 221 228 238 261 298 255 257 290 298 323 323 293 320 307 283 273 268 252 257 261 215 261 275 197 226 247 264 273 271 275 280 278 275 271 271 270 268 264 263
298 299 300 299 299 298 297 296 294 291 290 288 287 287 288 287 287 287 287 288 289 289 290 289 287 285 281 271 273 281 287 286 284 284 282 281 278 274 269 264 261 255 251 248 243 241 235 231 227 224 235 239 247 267 268 289 310 297 321 344 292 337 303 280 285 248 226 230 231 163 258 272 221 237 252 268 272 267 271 275 278 279 276 275 274 271 267 266
295 296 297 298 298 298 298 298 296 295 293 291 290 289 288 286 286 285 285 286 286 285 286 286 282 277 265 269 281 285 284 284 282 280 280 277 274 272 267 264 262 257 251 245 241 240 234 231 227 227 238 241 252 268 286 313 308 287 315 211 281 309 270 282 54 141 210 232 194 162 234 265 261 253 257 270 270 263 264 268 275 277 277 277 276 273 270 268
295 296 297 297 297 297 296 297 296 296 295 294 293 292 291 289 287 287 287 286 284 284 282 280 274 266 255 270 280 282 281 280 281 283 280 273 269 268 267 265 262 257 250 242 239 237 234 227 222 225 237 247 255 268 310 337 330 16 232 269 258 201 259 296 315 187 215 240 177 164 235 260 268 267 266 270 267 258 253 261 270 272 274 275 274 274 272 271
300 300 300 301 300 299 298 298 297 296 295 295 295 295 294 293 291 290 290 288 286 283 278 272 265 252 243 272 276 275 277 277 282 283 273 267 264 261 263 263 259 252 244 238 237 235 232 223 217 225 235 250 237 173 28 346 314 321 204 246 251 221 256 306 304 225 209 207 176 197 232 258 266 268 271 270 260 251 243 256 265 268 271 271 271 273 272 273
309 307 307 308 305 304 303 301 300 298 297 296 295 294 294 293 292 290 289 287 285 278 269 258 251 241 239 264 270 271 276 280 284 280 270 266 261 257 256 253 249 243 236 232 234 228 217 204 195 222 239 247 169 113 55 282 265 275 194 234 248 233 227 269 298 283 196 175 207 227 229 247 256 265 270 263 257 253 239 255 265 268 270 269 271 271 271 273
321 320 321 318 314 313 311 308 306 302 300 301 300 298 296 295 292 288 286 282 278 272 255 223 197 216 249 251 260 272 280 282 282 281 273 262 251 250 246 244 244 232 220 221 224 194 184 190 168 183 275 243 188 132 188 234 239 237 206 228 254 242 235 240 267 281 165 206 222 229 236 246 255 267 269 264 263 264 255 260 267 270 270 269 269 268 270 273
333 334 335 332 329 327 324 320 317 312 309 308 308 306 302 298 293 286 278 267 249 230 237 209 191 204 253 249 262 274 278 276 275 271 265 253 241 239 233 233 230 206 186 178 205 180 173 150 109 157 237 233 215 175 209 232 235 238 227 222 234 245 246 241 253 248 212 253 237 230 246 247 253 259 263 265 264 264 265 266 266 268 268 268 267 267 269 271
338 341 343 341 338 337 336 331 329 326 321 317 319 317 308 304 302 286 268 249 240 243 257 244 228 239 252 260 269 270 269 269 265 257 255 246 233 226 220 215 195 187 179 158 188 192 177 155 151 202 220 226 215 197 219 236 245 259 258 247 244 250 263 256 264 264 206 231 245 232 247 251 251 254 256 264 266 264 264 265 264 263 263 264 265 266 268 270
337 340 344 345 342 344 346 342 340 341 339 336 336 335 329 333 325 295 293 275 264 262 262 261 253 250 255 259 259 259 262 262 256 249 245 236 222 213 209 196 161 186 200 168 164 174 168 180 211 217 222 224 217 208 224 238 247 254 249 259 262 252 264 259 264 274 221 198 257 246 254 258 252 255 256 260 266 262 258 258 260 260 260 261 263 265 268 271
329 331 338 342 344 347 352 353 350 354 355 348 345 350 355 347 311 293 306 289 277 273 266 265 258 252 256 257 251 251 253 255 251 240 232 220 210 205 194 179 176 193 168 165 191 180 180 214 226 225 225 229 232 209 220 236 234 240 240 260 267 253 271 268 254 266 246 177 260 260 260 262 254 254 255 256 257 257 258 256 257 259 259 258 259 263 267 270
315 321 327 333 341 345 352 358 355 356 359 358 357 357 354 345 325 315 319 286 281 280 268 262 256 252 255 254 249 244 241 243 247 238 230 217 203 202 192 171 182 172 145 188 209 210 214 228 231 229 222 223 246 227 213 252 244 221 221 241 259 248 262 266 245 262 260 194 257 272 269 267 261 259 253 249 250 254 258 258 259 260 257 257 259 261 265 268
303 310 314 321 331 335 344 352 352 354 358 9 7 355 350 343 333 334 328 284 276 278 267 262 256 252 253 253 249 240 234 236 241 240 231 217 198 195 205 184 164 172 197 209 214 228 239 237 228 221 204 209 234 235 212 253 259 224 204 218 249 245 240 251 269 311 298 259 260 281 283 275 243 246 249 244 248 252 256 258 260 259 256 257 259 260 261 264
295 301 306 312 319 324 333 340 345 350 356 10 4 353 353 348 339 342 337 307 279 273 267 260 252 250 248 250 247 232 228 236 238 239 233 221 208 199 202 183 179 216 218 216 226 244 250 244 218 185 193 208 219 231 208 213 255 253 203 211 237 245 246 255 281 321 312 282 275 277 290 284 203 217 242 244 248 250 250 252 254 256 255 253 256 258 259 261
292 295 299 303 309 316 322 328 336 345 351 360 1 357 352 350 350 347 346 348 289 267 235 225 228 237 233 234 223 197 202 255 240 232 228 226 218 212 204 174 192 232 208 203 241 252 245 231 207 180 193 200 202 235 217 198 242 273 218 210 231 244 250 254 266 291 263 263 277 109 270 282 257 209 233 239 242 244 246 247 247 252 253 249 251 256 259 261
288 293 295 297 302 306 308 313 321 336 351 351 357 358 350 353 359 351 1 356 286 218 153 187 187 198 214 194 180 164 169 267 230 215 210 211 212 209 219 194 189 238 165 142 273 243 196 210 208 201 195 180 189 234 220 185 215 269 221 195 215 232 236 224 213 220 234 282 286 150 149 273 281 241 205 221 228 235 244 247 247 249 250 249 249 253 257 260
279 284 287 290 295 298 301 305 311 327 344 348 355 354 354 1 355 4 38 317 285 126 127 201 169 200 223 173 176 172 102 251 120 196 198 199 200 198 229 228 187 243 164 151 248 243 151 189 213 200 184 187 207 224 196 166 202 254 173 158 178 197 201 158 157 203 275 341 288 207 135 261 283 257 186 213 220 223 237 239 243 244 245 248 249 252 256 261
263 269 277 281 283 289 295 299 304 314 318 341 358 346 350 348 346 34 78 266 293 83 112 196 178 228 139 158 190 216 352 39 80 178 180 192 198 185 227 246 204 260 261 198 235 261 183 179 194 171 172 216 222 227 174 169 206 238 114 96 71 77 83 99 133 139 51 309 264 203 152 227 284 284 141 181 206 215 231 235 242 242 241 247 251 254 259 263
250 251 260 268 271 277 285 289 293 300 303 320 340 339 347 326 0 62 222 247 326 349 159 178 220 254 102 128 226 264 257 302 56 143 149 167 193 191 160 283 184 230 274 266 253 258 247 126 119 174 196 208 189 164 167 178 201 88 91 53 25 16 25 50 33 80 55 280 244 183 180 189 274 293 138 173 209 217 225 229 246 252 249 252 254 257 261 264
255 251 249 256 266 271 274 278 285 291 288 290 309 331 0 23 65 164 231 257 14 298 146 183 281 63 105 133 256 277 242 276 183 154 170 148 173 192 140 153 104 85 315 291 272 269 255 213 202 203 189 156 116 122 0 28 101 96 97 66 17 331 1 25 351 52 180 261 232 187 184 181 233 260 196 232 255 221 211 221 233 244 249 251 253 255 259 265
259 258 255 257 262 266 266 270 279 280 278 284 292 308 79 69 243 215 242 4 2 243 153 180 186 132 167 124 248 243 191 265 209 160 176 167 167 188 192 203 176 69 295 249 269 303 268 226 207 169 181 173 149 149 328 352 56 116 123 127 0 301 335 352 309 27 223 256 239 185 175 204 240 245 238 263 272 237 208 217 224 226 237 246 252 255 257 268
255 255 255 255 257 261 263 268 271 268 274 280 273 128 100 162 239 215 227 321 244 214 137 153 144 139 137 106 257 228 180 238 201 172 189 152 164 237 252 227 171 182 260 220 305 319 288 269 176 134 230 193 165 170 229 276 176 163 158 160 174 212 237 258 268 274 259 268 272 173 165 249 277 263 224 235 253 242 209 218 228 228 234 246 257 260 258 266
255 255 255 254 255 258 261 263 260 259 264 255 189 104 104 228 240 137 180 230 262 318 332 79 66 107 147 199 240 200 208 248 177 158 193 133 143 254 260 242 197 186 232 211 290 213 257 287 193 161 217 179 176 204 205 158 162 191 163 143 179 189 180 198 227 251 260 282 306 227 177 223 266 271 225 222 249 265 228 229 237 242 249 256 262 263 260 258
259 259 257 257 255 253 255 255 251 255 245 195 133 110 199 229 243 141 202 224 271 299 292 338 42 291 257 255 257 215 216 246 147 137 186 167 180 212 205 212 203 190 157 200 249 168 222 270 241 187 157 156 179 214 189 123 90 232 118 114 222 203 172 208 244 237 240 297 292 236 222 232 244 272 261 247 269 275 254 248 252 255 256 258 258 257 255 253
268 265 262 261 257 253 253 247 243 246 222 170 123 224 219 225 214 178 208 208 183 198 312 329 311 235 272 263 276 262 218 224 176 148 205 200 204 215 211 212 196 187 180 189 221 206 232 269 273 251 231 175 185 212 175 158 198 194 125 186 219 170 158 218 268 282 119 260 262 235 252 276 307 284 269 249 256 263 268 264 250 248 252 255 257 257 257 260
271 270 267 262 258 256 249 237 232 230 207 170 174 231 213 229 199 186 215 157 176 114 73 319 259 229 265 259 271 290 263 246 208 180 216 223 236 214 209 231 199 189 201 210 225 235 237 266 254 189 233 278 0 15 351 96 130 126 176 215 185 104 139 169 240 316 260 251 263 265 265 277 301 283 304 3 291 272 269 263 254 259 260 262 269 269 269 273
271 275 272 265 261 254 242 236 224 212 192 167 226 232 212 222 196 190 212 204 291 50 108 234 253 248 252 262 276 264 257 259 193 185 212 211 232 196 176 229 209 193 216 223 243 283 241 263 272 193 206 299 18 33 324 352 83 139 209 239 110 157 245 164 178 222 235 245 255 260 267 273 250 254 286 299 276 278 280 290 309 285 267 269 284 287 286 287
271 278 277 272 264 244 232 225 208 196 182 170 232 228 212 211 202 201 214 217 203 155 210 224 221 244 246 244 265 257 244 238 193 208 229 214 242 219 146 284 180 42 245 200 211 301 357 270 271 344 12 322 17 97 208 274 354 42 312 329 60 185 199 184 184 180 220 245 254 247 257 270 252 233 233 240 246 257 266 286 291 261 253 266 278 301 313 315
260 262 267 259 232 201 198 199 195 187 181 218 222 222 222 219 228 220 214 210 189 186 222 220 207 231 244 239 246 234 246 254 190 237 251 234 294 312 339 51 117 331 323 150 180 274 29 266 259 303 339 295 262 202 187 191 196 194 235 250 247 231 202 238 239 178 203 242 254 252 250 263 265 223 221 248 241 215 222 253 293 292 294 297 300 315 316 313
235 240 254 220 192 187 180 181 188 188 206 246 229 235 241 237 243 229 216 214 217 221 217 196 201 215 224 237 226 183 192 230 186 223 257 256 276 288 283 113 116 30 355 55 46 343 85 264 268 283 276 256 262 237 184 198 211 196 206 217 220 223 227 259 249 213 200 236 247 260 257 261 281 269 223 249 249 221 231 263 299 303 303 309 310 306 301 296
207 227 242 197 191 195 182 175 195 204 206 227 233 234 226 230 237 232 218 210 212 223 219 204 214 210 205 229 226 205 215 214 198 212 225 223 224 222 239 244 209 168 129 253 256 193 138 165 257 262 255 260 284 288 223 215 237 243 227 223 229 228 214 235 249 236 240 273 290 281 266 252 275 276 261 244 255 254 258 258 253 271 283 293 293 289 288 286
207 225 222 195 204 202 186 184 224 207 211 236 234 236 226 222 229 230 220 205 201 213 216 209 213 218 221 222 222 223 223 217 206 210 221 224 220 222 232 241 239 218 177 220 236 179 143 134 228 252 274 274 287 298 281 218 208 252 251 221 223 232 224 234 254 246 240 260 265 266 262 241 249 265 267 270 268 261 262 260 248 257 273 277 275 278 281 280
225 237 228 217 219 208 194 195 215 207 227 235 229 244 239 233 229 231 223 192 189 196 208 219 213 220 227 218 216 214 204 219 223 216 222 224 217 223 229 235 239 233 210 209 193 181 189 173 167 225 281 277 276 298 289 251 185 217 233 227 227 233 243 258 279 236 232 239 236 244 257 247 241 256 268 279 279 274 271 269 266 268 275 278 279 279 278 276
250 248 235 221 212 208 209 219 223 214 215 224 232 232 236 245 233 236 239 218 206 203 203 235 227 224 222 212 226 225 205 221 241 226 220 226 239 234 229 232 235 231 230 225 194 171 203 194 166 214 250 258 260 257 246 230 214 211 221 237 234 225 231 246 253 244 242 236 233 240 252 252 251 259 267 272 273 272 271 270 269 270 274 280 282 279 277 276
260 249 240 220 210 213 222 227 229 230 205 223 235 218 226 244 241 239 243 235 231 227 225 243 249 253 232 209 233 243 225 231 242 235 230 237 258 253 229 232 234 232 238 233 202 170 192 204 201 225 235 241 253 251 234 206 218 237 237 235 234 227 225 230 235 239 244 246 242 238 244 253 254 255 260 263 264 267 270 271 271 272 276 280 281 277 276 276
251 253 213 205 219 225 232 230 226 220 213 219 217 207 232 242 250 247 233 228 234 228 223 235 234 233 231 225 236 243 237 238 237 238 245 242 249 271 255 245 242 242 248 239 200 180 175 230 216 229 236 238 247 252 250 241 239 246 246 241 241 239 232 231 238 242 247 256 253 241 243 253 253 248 254 259 261 264 268 273 277 278 278 279 280 279 277 275
214 270 236 204 230 231 232 233 231 236 237 227 214 223 242 243 240 232 226 244 244 220 213 236 228 227 241 250 254 254 244 241 242 244 248 257 286 304 288 279 265 256 257 237 197 188 199 240 230 235 242 242 245 250 252 253 251 250 250 249 249 248 247 247 247 248 247 250 256 254 250 254 253 248 250 255 259 261 264 273 280 282 282 281 278 276 277 278
226 274 266 265 273 264 285 322 300 278 262 252 238 229 240 245 242 230 210 289 285 227 222 245 240 249 304 341 348 297 275 256 259 272 338 344 326 320 308 306 304 294 292 257 217 215 213 233 232 239 249 248 245 246 248 251 255 255 251 249 248 250 252 252 252 254 252 253 258 259 256 256 255 253 253 254 258 262 266 272 277 282 285 283 279 277 282 289
246 267 289 301 286 276 289 300 308 305 257 249 244 223 218 230 240 239 175 192 254 270 242 281 357 2 1 19 353 279 270 125 143 284 341 346 330 335 338 316 331 339 331 314 275 253 234 227 229 242 254 250 245 249 247 244 247 250 248 246 247 250 252 254 256 257 257 256 256 254 255 257 256 256 256 256 259 264 268 270 274 278 281 284 290 303 319 327
253 264 291 304 282 273 284 277 272 280 249 236 228 224 228 227 235 329 342 227 226 211 71 31 2 350 333 314 306 294 1 129 217 260 267 269 274 275 276 274 294 320 316 295 288 282 263 261 253 259 266 252 245 251 252 249 247 246 247 248 247 246 245 247 247 245 248 253 255 256 257 256 255 258 260 264 268 270 271 275 278 282 291 306 327 350 5 6
256 261 261 259 266 269 271 326 340 236 241 246 235 274 267 267 35 40 322 251 156 117 61 34 1 335 324 306 307 327 332 308 288 284 276 259 252 253 251 248 246 250 269 284 284 258 242 260 266 267 270 265 257 255 256 256 249 240 236 236 238 242 243 244 245 246 248 251 254 257 257 266 288 305 314 313 312 307 299 303 315 326 343 357 2 3 4 3
Height
1566 1566 1566 1565 1565 1565 1564 1564 1563 1563 1562 1562 1561 1561 1560 1559 1559 1558 1558 1557 1557 1556 1556 1555 1554 1554 1553 1552 1552 1551 1550 1550 1549 1548 1547 1547 1548 1548 1548 1548 1548 1548 1548 1548 1548 1548 1547 1548 1548 1548 1548 1548 1548 1548 1548 1548 1548 1549 1551 1554 1553 1552 1549 1541 1538 1536 1534 1532 1530 1529 1528 1528 1527 1525 1524 1523 1522 1521 1520 1519 1519 1519 1518 1518 1517 1517 1517 1518
1566 1565 1565 1565 1564 1564 1564 1563 1563 1563 1562 1562 1561 1561 1560 1559 1559 1558 1558 1557 1556 1556 1555 1555 1554 1553 1553 1552 1551 1550 1549 1549 1548 1546 1546 1546 1546 1546 1546 1547 1547 1547 1547 1547 1547 1547 1547 1547 1547 1547 1547 1547 1547 1547 1547 1547 1547 1548 1551 1553 1549 1546 1540 1534 1533 1532 1532 1531 1529 1528 1527 1527 1526 1524 1524 1523 1520 1519 1518 1516 1517 1517 1516 1516 1515 1515 1515 1516
1565 1565 1564 1564 1564 1564 1563 1563 1563 1562 1562 1561 1561 1560 1560 1559 1559 1558 1557 1557 1556 1555 1555 1554 1554 1553 1552 1552 1551 1550 1549 1547 1546 1545 1544 1544 1545 1545 1545 1545 1546 1546 1546 1546 1547 1547 1547 1547 1546 1546 1547 1546 1546 1546 1546 1546 1546 1546 1548 1550 1543 1538 1535 1532 1532 1530 1530 1529 1528 1527 1526 1526 1524 1523 1523 1521 1518 1517 1514 1512 1514 1514 1513 1513 1513 1513 1514 1514
1564 1564 1564 1563 1563 1563 1562 1562 1562 1562 1561 1561 1560 1560 1559 1559 1558 1558 1557 1556 1556 1555 1554 1554 1553 1552 1552 1551 1550 1549 1548 1546 1544 1543 1544 1543 1544 1544 1544 1544 1544 1545 1545 1546 1546 1546 1546 1546 1546 1546 1546 1546 1545 1546 1545 1544 1545 1544 1544 1544 1537 1535 1535 1530 1529 1529 1529 1529 1528 1527 1526 1525 1523 1523 1521 1520 1519 1512 1506 1508 1510 1511 1510 1511 1511 1511 1511 1511
1563 1563 1563 1562 1562 1562 1562 1561 1561 1561 1561 1560 1560 1559 1559 1558 1558 1557 1556 1556 1555 1554 1554 1553 1552 1552 1551 1550 1550 1549 1548 1547 1543 1543 1544 1542 1542 1542 1542 1542 1543 1543 1544 1544 1545 1545 1545 1545 1545 1545 1545 1545 1545 1545 1543 1542 1543 1542 1539 1536 1534 1535 1534 1528 1528 1529 1528 1528 1527 1527 1526 1524 1522 1521 1519 1519 1518 1505 1499 1505 1507 1507 1509 1509 1509 1509 1508 1508
1562 1562 1562 1561 1561 1561 1561 1560 1560 1560 1560 1559 1559 1558 1558 1557 1557 1556 1556 1555 1554 1553 1553 1552 1552 1551 1550 1550 1549 1548 1549 1547 1543 1543 1543 1542 1542 1541 1541 1541 1541 1542 1542 1543 1544 1544 1544 1544 1544 1544 1544 1543 1543 1543 1541 1540 1542 1541 1536 1534 1533 1534 1531 1527 1527 1528 1528 1528 1527 1526 1524 1523 1522 1519 1517 1516 1510 1499 1498 1505 1505 1505 1506 1507 1506 1506 1504 1504
1562 1561 1561 1561 1560 1560 1559 1559 1559 1559 1558 1558 1558 1557 1557 1556 1556 1555 1555 1554 1553 1552 1552 1551 1551 1550 1549 1548 1548 1547 1547 1545 1542 1542 1542 1541 1541 1540 1540 1540 1540 1540 1540 1541 1542 1543 1543 1543 1543 1543 1543 1542 1542 1540 1539 1539 1540 1539 1535 1532 1531 1531 1529 1526 1527 1527 1527 1526 1525 1525 1523 1522 1521 1518 1516 1511 1501 1495 1499 1503 1503 1503 1503 1504 1503 1502 1501 1500
1561 1560 1560 1560 1559 1559 1558 1558 1557 1557 1557 1557 1556 1556 1556 1555 1555 1554 1554 1553 1552 1551 1551 1550 1550 1549 1548 1547 1546 1545 1544 1543 1542 1542 1541 1541 1540 1539 1539 1539 1539 1539 1539 1540 1540 1541 1541 1541 1541 1541 1541 1541 1540 1538 1538 1538 1538 1537 1533 1531 1530 1529 1527 1525 1526 1525 1525 1524 1524 1525 1521 1519 1519 1518 1514 1504 1494 1493 1498 1500 1499 1500 1500 1500 1499 1498 1498 1497
1560 1559 1559 1559 1558 1558 1557 1557 1556 1556 1555 1555 1555 1554 1554 1554 1553 1553 1552 1552 1551 1550 1549 1549 1549 1548 1548 1546 1546 1544 1541 1540 1541 1540 1540 1540 1539 1538 1538 1537 1537 1537 1537 1538 1538 1539 1539 1539 1539 1539 1539 1538 1538 1537 1537 1538 1536 1533 1531 1529 1528 1527 1525 1524 1523 1522 1523 1522 1522 1523 1518 1515 1517 1518 1511 1496 1490 1491 1495 1496 1495 1497 1496 1495 1495 1494 1494 1493
1558 1558 1558 1557 1557 1556 1555 1555 1555 1554 1554 1553 1553 1553 1553 1552 1552 1551 1550 1550 1549 1549 1548 1548 1547 1547 1546 1545 1545 1542 1538 1539 1540 1539 1539 1538 1537 1537 1536 1536 1536 1535 1536 1536 1536 1536 1536 1537 1537 1538 1538 1537 1536 1535 1535 1536 1533 1530 1530 1529 1526 1526 1524 1521 1520 1518 1520 1520 1519 1520 1515 1511 1515 1519 1507 1489 1488 1492 1492 1492 1492 1493 1492 1491 1491 1491 1490 1490
1556 1556 1556 1556 1555 1555 1554 1553 1553 1552 1552 1551 1551 1551 1551 1550 1550 1549 1548 1548 1548 1547 1547 1546 1546 1546 1545 1544 1543 1539 1536 1538 1538 1537 1537 1536 1535 1535 1534 1534 1534 1534 1534 1533 1533 1534 1534 1535 1536 1537 1537 1536 1535 1534 1534 1532 1531 1530 1529 1527 1524 1525 1522 1517 1516 1516 1518 1517 1514 1516 1513 1510 1515 1515 1501 1486 1488 1492 1491 1490 1490 1490 1488 1488 1488 1488 1488 1486
1553 1553 1553 1553 1553 1552 1552 1551 1551 1550 1550 1549 1549 1549 1549 1548 1547 1547 1546 1546 1545 1545 1544 1544 1544 1543 1543 1541 1537 1535 1536 1536 1536 1535 1535 1534 1534 1533 1532 1532 1532 1532 1532 1531 1532 1532 1533 1534 1534 1535 1535 1535 1534 1533 1532 1530 1531 1529 1529 1529 1523 1524 1521 1510 1511 1514 1515 1514 1510 1514 1513 1509 1510 1503 1491 1487 1489 1491 1491 1488 1486 1486 1484 1484 1485 1485 1484 1482
1551 1551 1551 1550 1550 1549 1549 1549 1548 1548 1547 1547 1547 1547 1546 1546 1545 1544 1544 1543 1543 1542 1542 1542 1541 1541 1541 1537 1532 1533 1534 1533 1533 1533 1533 1532 1531 1530 1530 1530 1530 1530 1530 1530 1530 1530 1532 1532 1532 1533 1533 1533 1533 1532 1530 1528 1530 1528 1530 1531 1525 1528 1521 1504 1507 1511 1511 1512 1508 1513 1515 1503 1499 1493 1486 1488 1489 1490 1490 1486 1483 1482 1480 1480 1481 1481 1480 1479
1550 1549 1549 1548 1547 1547 1546 1546 1545 1545 1544 1544 1544 1544 1543 1543 1542 1541 1541 1541 1540 1540 1539 1539 1538 1538 1538 1533 1529 1530 1531 1530 1530 1530 1530 1530 1529 1528 1528 1528 1528 1528 1528 1529 1529 1529 1530 1531 1532 1532 1532 1532 1531 1530 1530 1529 1529 1529 1531 1531 1530 1534 1520 1501 1507 1511 1508 1510 1506 1511 1515 1500 1490 1487 1485 1486 1488 1488 1487 1484 1481 1479 1478 1477 1477 1477 1475 1475
1548 1547 1547 1546 1546 1545 1544 1543 1543 1542 1541 1541 1541 1541 1540 1540 1539 1538 1538 1538 1537 1537 1536 1536 1535 1536 1535 1530 1527 1528 1527 1527 1526 1527 1528 1527 1526 1526 1525 1526 1526 1526 1527 1527 1527 1528 1529 1530 1531 1531 1531 1531 1530 1530 1530 1530 1529 1529 1532 1530 1530 1533 1520 1504 1505 1507 1505 1506 1505 1509 1511 1500 1487 1482 1482 1484 1485 1485 1484 1480 1478 1477 1476 1475 1474 1473 1471 1470
1546 1546 1545 1544 1544 1543 1542 1541 1540 1540 1539 1538 1538 1537 1537 1536 1535 1535 1535 1534 1535 1534 1533 1533 1533 1534 1533 1527 1525 1525 1524 1523 1524 1524 1524 1524 1524 1523 1524 1524 1524 1524 1525 1525 1526 1527 1528 1530 1531 1531 1531 1529 1529 1530 1532 1534 1532 1530 1531 1529 1527 1529 1525 1514 1503 1500 1501 1503 1505 1505 1502 1495 1485 1478 1479 1482 1482 1481 1481 1477 1475 1474 1473 1473 1472 1470 1467 1465
1544 1544 1543 1543 1542 1541 1540 1539 1538 1537 1536 1535 1535 1534 1534 1533 1532 1532 1531 1531 1531 1531 1531 1530 1530 1532 1529 1524 1522 1521 1520 1521 1521 1521 1520 1521 1521 1521 1522 1522 1522 1523 1523 1524 1525 1526 1527 1529 1530 1530 1530 1528 1527 1529 1536 1541 1534 1527 1529 1528 1526 1525 1525 1519 1504 1497 1499 1501 1501 1501 1498 1490 1480 1475 1477 1479 1479 1478 1478 1475 1472 1471 1470 1470 1469 1467 1464 1461
1543 1542 1542 1541 1540 1539 1538 1537 1536 1535 1534 1533 1532 1531 1530 1529 1529 1528 1527 1527 1528 1529 1529 1528 1529 1531 1526 1520 1519 1518 1517 1519 1518 1518 1518 1518 1519 1519 1520 1520 1521 1521 1523 1524 1524 1525 1528 1528 1529 1530 1529 1527 1526 1530 1535 1533 1524 1521 1524 1525 1525 1523 1522 1520 1508 1498 1498 1499 1499 1499 1497 1489 1481 1476 1475 1475 1477 1476 1474 1473 1470 1468 1468 1467 1466 1463 1460 1457
1542 1541 1541 1540 1539 1538 1537 1536 1535 1533 1532 1531 1530 1529 1527 1526 1526 1525 1524 1524 1525 1525 1526 1524 1524 1526 1521 1516 1517 1516 1516 1516 1515 1516 1516 1515 1516 1517 1518 1518 1519 1520 1522 1524 1524 1524 1525 1527 1530 1531 1527 1521 1521 1526 1525 1517 1513 1516 1518 1520 1521 1518 1516 1513 1505 1497 1498 1499 1498 1497 1492 1486 1482 1478 1473 1472 1474 1473 1471 1470 1468 1465 1464 1463 1462 1459 1455 1453
1541 1541 1540 1539 1538 1537 1536 1535 1534 1532 1530 1529 1528 1527 1525 1525 1524 1523 1522 1522 1521 1520 1520 1519 1518 1517 1515 1514 1515 1515 1514 1513 1513 1513 1513 1513 1514 1515 1516 1517 1518 1520 1521 1521 1523 1522 1522 1526 1528 1524 1517 1514 1516 1519 1515 1511 1513 1516 1518 1519 1518 1517 1513 1506 1500 1495 1498 1499 1493 1491 1486 1480 1479 1475 1471 1471 1471 1470 1468 1467 1464 1461 1460 1458 1456 1453 1450 1448
1541 1541 1540 1539 1538 1537 1536 1535 1533 1531 1530 1528 1527 1526 1525 1525 1524 1523 1522 1519 1518 1517 1515 1515 1515 1513 1511 1512 1512 1511 1511 1510 1509 1509 1510 1511 1512 1513 1514 1515 1518 1519 1519 1519 1521 1521 1521 1525 1522 1513 1507 1509 1512 1512 1512 1513 1515 1516 1518 1518 1517 1517 1509 1500 1498 1494 1495 1498 1490 1486 1484 1477 1475 1472 1468 1469 1469 1466 1463 1462 1459 1455 1455 1454 1451 1448 1444 1443
1540 1539 1539 1539 1538 1537 1536 1534 1533 1531 1530 1528 1527 1526 1526 1526 1526 1525 1523 1519 1514 1513 1512 1510 1510 1507 1506 1507 1507 1508 1509 1507 1506 1506 1508 1509 1510 1510 1510 1512 1515 1515 1516 1519 1520 1521 1523 1522 1513 1505 1506 1510 1510 1511 1513 1513 1515 1516 1519 1520 1517 1514 1506 1496 1495 1492 1493 1497 1488 1484 1481 1473 1470 1468 1466 1467 1464 1459 1456 1455 1452 1450 1451 1450 1446 1443 1439 1438
1539 1538 1538 1538 1537 1537 1535 1534 1533 1531 1530 1529 1528 1527 1527 1526 1525 1524 1524 1520 1512 1507 1506 1504 1502 1500 1500 1501 1502 1504 1504 1502 1502 1503 1505 1507 1506 1508 1508 1509 1512 1513 1516 1516 1515 1517 1519 1513 1505 1503 1508 1511 1510 1511 1512 1513 1514 1515 1516 1519 1514 1510 1506 1497 1490 1489 1491 1493 1487 1484 1479 1468 1466 1465 1462 1462 1456 1452 1451 1449 1447 1447 1447 1444 1440 1439 1436 1433
1537 1537 1537 1536 1536 1536 1535 1535 1533 1532 1531 1529 1528 1528 1527 1526 1525 1523 1522 1519 1511 1504 1499 1497 1497 1495 1494 1496 1498 1500 1500 1499 1500 1500 1501 1503 1504 1507 1506 1507 1511 1513 1512 1509 1507 1507 1504 1501 1501 1504 1507 1509 1510 1510 1512 1514 1511 1507 1511 1514 1507 1502 1503 1497 1491 1490 1491 1489 1486 1486 1477 1460 1458 1460 1456 1454 1450 1448 1448 1445 1444 1442 1440 1438 1435 1433 1432 1427
1534 1535 1534 1534 1535 1534 1534 1534 1532 1532 1530 1529 1529 1527 1527 1526 1524 1523 1522 1519 1511 1500 1494 1492 1492 1492 1491 1493 1495 1497 1498 1498 1497 1496 1498 1499 1500 1503 1504 1505 1508 1506 1505 1506 1507 1504 1498 1499 1500 1503 1506 1508 1509 1509 1511 1513 1506 1499 1503 1504 1495 1493 1496 1495 1495 1496 1495 1492 1486 1489 1481 1453 1443 1452 1451 1448 1448 1446 1445 1443 1440 1436 1433 1433 1431 1426 1424 1422
1533 1533 1532 1533 1533 1533 1533 1532 1532 1532 1530 1529 1528 1527 1527 1526 1524 1524 1523 1523 1512 1496 1492 1492 1490 1490 1490 1491 1492 1495 1499 1496 1492 1494 1496 1496 1497 1499 1501 1502 1502 1500 1501 1504 1506 1501 1497 1497 1497 1499 1502 1504 1509 1511 1507 1507 1504 1497 1495 1493 1489 1491 1495 1496 1498 1500 1497 1492 1487 1490 1490 1464 1441 1446 1450 1446 1446 1443 1441 1440 1435 1430 1427 1427 1425 1419 1418 1417
1531 1531 1531 1531 1531 1531 1532 1532 1532 1531 1530 1530 1528 1527 1528 1525 1526 1524 1523 1526 1511 1491 1489 1491 1489 1489 1488 1490 1491 1494 1497 1493 1489 1492 1492 1493 1495 1497 1499 1499 1499 1498 1498 1503 1504 1497 1493 1494 1496 1497 1500 1504 1509 1506 1497 1501 1504 1495 1488 1487 1487 1489 1493 1494 1497 1499 1496 1492 1489 1487 1492 1483 1452 1438 1442 1438 1439 1441 1438 1435 1429 1424 1423 1420 1419 1416 1415 1414
1529 1529 1529 1529 1529 1529 1530 1530 1531 1531 1531 1530 1528 1529 1527 1525 1528 1523 1527 1532 1508 1485 1489 1489 1488 1489 1488 1490 1491 1490 1492 1490 1489 1492 1491 1493 1494 1496 1497 1496 1498 1497 1496 1501 1499 1491 1489 1492 1494 1495 1500 1503 1500 1492 1488 1496 1499 1489 1487 1490 1489 1489 1491 1493 1493 1497 1500 1496 1491 1485 1490 1491 1455 1427 1433 1434 1435 1440 1434 1428 1423 1419 1419 1415 1414 1414 1413 1412
1526 1526 1527 1527 1526 1527 1527 1528 1529 1530 1530 1529 1529 1528 1526 1528 1527 1523 1537 1536 1500 1483 1491 1489 1488 1490 1488 1491 1491 1490 1491 1490 1490 1491 1491 1493 1493 1495 1496 1495 1497 1498 1496 1497 1494 1488 1489 1490 1491 1493 1497 1495 1488 1486 1488 1492 1491 1487 1490 1491 1492 1493 1492 1495 1493 1493 1500 1495 1486 1484 1487 1487 1452 1421 1431 1437 1436 1436 1428 1423 1420 1416 1415 1412 1412 1412 1412 1411
1524 1524 1525 1524 1523 1524 1525 1525 1527 1528 1528 1528 1528 1527 1527 1528 1526 1531 1542 1525 1493 1488 1492 1488 1489 1491 1489 1492 1492 1491 1491 1490 1490 1491 1492 1493 1493 1494 1495 1494 1496 1496 1496 1496 1492 1488 1488 1489 1490 1489 1488 1485 1484 1489 1490 1490 1490 1489 1492 1490 1492 1495 1494 1498 1496 1494 1500 1489 1478 1477 1476 1481 1461 1429 1430 1435 1429 1427 1423 1420 1418 1415 1414 1411 1410 1411 1410 1410
1521 1522 1522 1522 1521 1522 1522 1523 1526 1527 1527 1527 1527 1527 1528 1528 1531 1538 1530 1504 1491 1493 1490 1489 1492 1491 1491 1493 1492 1491 1492 1491 1490 1491 1491 1493 1493 1494 1495 1494 1495 1497 1497 1495 1490 1486 1486 1488 1486 1481 1480 1482 1484 1488 1489 1491 1491 1490 1492 1491 1492 1496 1495 1500 1500 1501 1502 1484 1468 1467 1468 1477 1462 1431 1425 1425 1419 1421 1421 1419 1415 1413 1413 1410 1408 1409 1408 1407
1518 1519 1519 1519 1519 1519 1520 1521 1523 1525 1525 1525 1527 1527 1528 1533 1535 1529 1511 1495 1495 1493 1487 1489 1491 1490 1492 1493 1492 1491 1491 1490 1489 1490 1490 1492 1493 1493 1493 1492 1492 1495 1494 1490 1488 1484 1480 1478 1477 1475 1476 1479 1480 1485 1490 1491 1491 1491 1492 1494 1498 1503 1502 1502 1501 1501 1498 1478 1464 1468 1472 1469 1446 1422 1422 1419 1413 1415 1415 1414 1411 1409 1410 1407 1406 1407 1406 1405
1515 1515 1516 1516 1516 1516 1518 1519 1521 1522 1522 1523 1526 1526 1530 1536 1526 1511 1504 1500 1495 1488 1485 1488 1488 1490 1493 1492 1491 1490 1491 1489 1487 1489 1489 1491 1494 1492 1492 1491 1489 1490 1489 1489 1489 1483 1475 1470 1473 1476 1474 1473 1475 1481 1486 1484 1485 1489 1488 1489 1498 1504 1506 1505 1500 1497 1489 1471 1466 1474 1475 1460 1434 1417 1414 1410 1406 1407 1408 1409 1408 1406 1405 1404 1404 1404 1404 1403
1511 1512 1512 1512 1513 1514 1515 1517 1518 1519 1521 1522 1524 1526 1533 1530 1511 1500 1504 1502 1493 1487 1487 1488 1489 1491 1491 1490 1489 1487 1488 1486 1484 1488 1488 1490 1494 1492 1489 1490 1490 1488 1488 1492 1491 1486 1482 1472 1466 1469 1466 1465 1468 1469 1470 1472 1478 1482 1479 1481 1486 1487 1490 1493 1487 1480 1471 1463 1468 1478 1469 1447 1427 1413 1405 1403 1404 1404 1405 1406 1405 1404 1403 1401 1401 1401 1400 1398
1507 1508 1508 1508 1509 1510 1512 1514 1515 1517 1519 1520 1523 1527 1527 1515 1501 1500 1502 1497 1494 1492 1489 1488 1489 1491 1490 1489 1487 1484 1484 1483 1484 1487 1488 1489 1490 1486 1483 1484 1486 1487 1490 1493 1488 1486 1487 1472 1459 1462 1460 1460 1462 1459 1462 1469 1475 1479 1479 1481 1480 1474 1474 1475 1471 1466 1466 1467 1467 1468 1455 1433 1418 1409 1404 1406 1405 1403 1404 1403 1403 1403 1401 1400 1399 1396 1395 1394
1504 1504 1505 1504 1504 1506 1508 1510 1512 1514 1516 1518 1523 1523 1513 1501 1497 1498 1495 1491 1492 1491 1491 1491 1489 1491 1491 1487 1486 1484 1482 1483 1485 1486 1486 1487 1485 1481 1480 1477 1478 1480 1482 1484 1480 1478 1480 1469 1460 1463 1462 1459 1460 1458 1460 1464 1468 1476 1481 1476 1471 1469 1467 1470 1470 1466 1472 1474 1458 1447 1440 1428 1418 1408 1402 1405 1404 1401 1403 1402 1401 1400 1397 1397 1396 1393 1393 1393
1502 1501 1501 1500 1501 1503 1505 1507 1509 1511 1512 1516 1518 1511 1500 1494 1492 1492 1490 1489 1490 1490 1493 1496 1492 1489 1489 1485 1484 1484 1483 1483 1485 1485 1484 1485 1481 1476 1475 1472 1471 1472 1470 1471 1471 1469 1471 1466 1459 1461 1462 1462 1463 1463 1462 1461 1463 1470 1474 1467 1464 1469 1468 1470 1476 1472 1472 1471 1453 1436 1430 1427 1426 1415 1403 1404 1404 1400 1400 1399 1398 1398 1396 1395 1394 1393 1394 1394
1499 1499 1497 1496 1498 1500 1502 1504 1505 1507 1510 1512 1510 1501 1493 1491 1489 1488 1488 1489 1489 1490 1494 1498 1494 1488 1488 1488 1484 1483 1483 1483 1484 1484 1482 1481 1475 1469 1468 1467 1467 1469 1466 1467 1470 1467 1468 1468 1460 1458 1462 1463 1463 1465 1464 1463 1464 1465 1465 1463 1465 1469 1468 1469 1475 1474 1470 1466 1452 1438 1429 1424 1424 1415 1405 1405 1402 1397 1397 1397 1397 1397 1397 1394 1391 1392 1393 1393
1497 1498 1494 1492 1495 1496 1498 1501 1501 1504 1506 1506 1503 1496 1490 1488 1486 1486 1487 1487 1489 1491 1493 1494 1492 1489 1487 1488 1485 1483 1484 1484 1482 1482 1481 1478 1472 1465 1465 1465 1466 1468 1467 1468 1472 1469 1469 1474 1468 1460 1463 1465 1464 1463 1462 1462 1465 1466 1465 1466 1466 1465 1463 1463 1464 1462 1460 1456 1448 1440 1433 1422 1413 1408 1404 1403 1399 1397 1398 1398 1397 1396 1395 1392 1391 1391 1391 1392
1496 1496 1492 1490 1493 1494 1495 1498 1499 1501 1500 1497 1494 1490 1486 1486 1486 1485 1486 1486 1487 1488 1488 1488 1489 1489 1486 1484 1485 1484 1485 1484 1482 1482 1479 1476 1472 1467 1465 1465 1467 1469 1468 1468 1470 1470 1470 1475 1473 1466 1465 1466 1462 1459 1458 1457 1460 1464 1465 1466 1465 1463 1462 1462 1459 1453 1451 1450 1446 1442 1437 1422 1408 1403 1401 1398 1396 1397 1397 1397 1395 1392 1391 1391 1389 1389 1389 1390
1494 1493 1489 1488 1492 1492 1493 1496 1496 1496 1494 1491 1488 1486 1485 1485 1484 1483 1484 1485 1485 1484 1485 1485 1485 1485 1484 1483 1483 1483 1485 1485 1483 1483 1481 1478 1476 1472 1467 1466 1467 1468 1470 1470 1470 1471 1473 1476 1477 1473 1469 1463 1456 1453 1455 1453 1452 1455 1457 1456 1455 1455 1458 1460 1455 1446 1443 1443 1440 1440 1438 1424 1408 1400 1399 1398 1398 1398 1397 1396 1394 1391 1390 1389 1388 1389 1389 1390
1490 1489 1486 1486 1489 1489 1491 1493 1491 1490 1489 1486 1483 1482 1483 1483 1481 1481 1482 1483 1483 1483 1483 1484 1483 1482 1482 1481 1481 1480 1482 1482 1480 1481 1481 1477 1474 1472 1466 1464 1465 1466 1469 1471 1471 1470 1472 1477 1480 1477 1470 1462 1455 1452 1454 1454 1452 1452 1452 1450 1449 1449 1451 1453 1448 1441 1440 1440 1437 1439 1439 1428 1412 1401 1398 1400 1399 1397 1396 1395 1394 1393 1391 1390 1390 1390 1390 1390
1486 1485 1484 1485 1487 1487 1489 1489 1488 1486 1484 1481 1480 1480 1481 1481 1479 1479 1479 1480 1481 1482 1482 1481 1480 1479 1478 1477 1477 1477 1479 1478 1475 1474 1474 1471 1468 1465 1462 1461 1463 1464 1466 1469 1468 1466 1469 1474 1477 1474 1468 1462 1457 1452 1450 1451 1453 1453 1450 1448 1448 1445 1443 1442 1441 1439 1440 1441 1441 1444 1439 1428 1414 1402 1397 1398 1396 1395 1394 1392 1391 1391 1390 1389 1390 1390 1390 1390
1484 1483 1483 1484 1485 1485 1484 1482 1481 1481 1480 1479 1480 1480 1479 1479 1477 1475 1475 1476 1478 1478 1478 1476 1475 1474 1473 1473 1473 1473 1474 1474 1469 1465 1466 1466 1461 1457 1457 1458 1459 1460 1462 1462 1460 1460 1463 1468 1471 1472 1468 1462 1458 1455 1451 1449 1450 1449 1446 1444 1443 1441 1441 1440 1440 1440 1439 1436 1437 1439 1433 1421 1411 1403 1399 1397 1393 1391 1387 1385 1386 1387 1386 1386 1387 1387 1386 1385
1483 1481 1480 1481 1482 1481 1478 1475 1475 1477 1478 1478 1478 1478 1478 1476 1473 1471 1472 1473 1474 1474 1474 1473 1472 1471 1470 1469 1469 1468 1468 1469 1466 1462 1462 1461 1456 1453 1453 1454 1455 1455 1456 1455 1455 1455 1457 1458 1461 1465 1464 1459 1455 1451 1447 1445 1445 1444 1443 1440 1438 1438 1438 1438 1438 1439 1437 1431 1427 1427 1423 1414 1407 1404 1402 1397 1391 1385 1379 1375 1378 1382 1383 1384 1383 1382 1381 1380
1482 1480 1478 1478 1478 1477 1474 1473 1474 1474 1475 1477 1476 1475 1475 1473 1470 1469 1470 1471 1470 1471 1471 1471 1470 1469 1468 1467 1467 1467 1465 1465 1464 1462 1460 1458 1455 1452 1450 1450 1451 1451 1451 1452 1452 1454 1456 1453 1451 1451 1450 1447 1443 1438 1436 1437 1440 1440 1438 1435 1433 1432 1432 1432 1433 1430 1427 1423 1419 1416 1415 1410 1406 1406 1402 1394 1388 1382 1375 1370 1373 1378 1380 1380 1379 1378 1377 1376
1481 1479 1476 1476 1476 1473 1471 1471 1472 1472 1472 1473 1473 1470 1469 1470 1469 1468 1468 1468 1467 1468 1468 1468 1467 1467 1465 1464 1464 1464 1462 1462 1461 1460 1458 1455 1452 1450 1449 1449 1450 1449 1449 1451 1451 1453 1455 1451 1445 1443 1441 1439 1436 1432 1431 1433 1433 1433 1432 1431 1430 1430 1430 1430 1428 1421 1420 1420 1412 1406 1407 1405 1402 1402 1398 1390 1384 1379 1373 1369 1370 1374 1376 1376 1375 1373 1372 1371
1479 1477 1474 1474 1474 1471 1469 1469 1469 1469 1469 1470 1469 1467 1466 1467 1468 1468 1467 1465 1464 1465 1466 1465 1463 1462 1462 1463 1463 1462 1459 1457 1457 1456 1456 1457 1457 1456 1452 1449 1449 1449 1450 1451 1450 1451 1450 1445 1441 1440 1437 1436 1435 1434 1432 1431 1429 1428 1429 1429 1428 1428 1428 1427 1422 1417 1417 1414 1404 1401 1403 1399 1395 1395 1392 1385 1379 1375 1371 1369 1369 1369 1370 1371 1372 1370 1367 1366
1477 1475 1473 1473 1472 1470 1468 1469 1469 1469 1469 1469 1468 1466 1465 1464 1464 1465 1465 1464 1464 1464 1463 1463 1463 1463 1465 1466 1467 1467 1463 1461 1460 1460 1462 1466 1466 1464 1460 1454 1450 1450 1451 1452 1451 1449 1446 1440 1436 1435 1434 1433 1433 1431 1430 1431 1429 1428 1428 1427 1425 1424 1422 1419 1414 1411 1411 1406 1399 1399 1397 1389 1387 1388 1385 1379 1374 1371 1372 1371 1368 1366 1365 1365 1366 1367 1367 1367
1476 1475 1474 1473 1471 1469 1468 1469 1469 1470 1469 1469 1467 1465 1464 1464 1463 1462 1463 1464 1464 1463 1461 1463 1465 1466 1467 1467 1467 1468 1466 1467 1469 1467 1468 1471 1468 1466 1466 1461 1456 1454 1454 1455 1453 1449 1446 1439 1431 1431 1432 1429 1428 1427 1428 1428 1427 1425 1422 1421 1422 1422 1418 1414 1410 1409 1407 1400 1394 1394 1390 1384 1382 1380 1376 1373 1371 1371 1371 1370 1367 1366 1364 1363 1364 1367 1369 1369
1475 1475 1475 1474 1472 1469 1468 1468 1468 1469 1468 1466 1465 1463 1462 1462 1462 1462 1462 1461 1461 1462 1463 1465 1467 1466 1465 1465 1465 1465 1465 1468 1470 1469 1469 1470 1468 1466 1467 1463 1461 1460 1457 1455 1453 1452 1450 1442 1434 1435 1432 1426 1425 1426 1423 1423 1423 1421 1420 1419 1418 1415 1410 1405 1402 1400 1397 1391 1388 1389 1386 1380 1376 1373 1371 1370 1371 1372 1372 1369 1368 1368 1368 1368 1369 1369 1370 1370
1474 1474 1474 1474 1472 1468 1468 1468 1468 1468 1466 1463 1463 1463 1461 1461 1462 1463 1463 1461 1459 1462 1463 1465 1466 1465 1465 1464 1463 1464 1465 1465 1465 1464 1465 1465 1464 1463 1462 1460 1460 1460 1457 1455 1453 1451 1450 1445 1440 1437 1430 1422 1421 1420 1417 1419 1418 1413 1411 1410 1405 1400 1396 1393 1391 1389 1387 1385 1385 1384 1379 1375 1376 1378 1379 1379 1378 1377 1376 1374 1373 1372 1372 1372 1371 1370 1370 1369